sat.trackr.live / text

‹ back to catalog

KUIPER-00289

NORAD 68591 · 2026-072U

PAYLOAD ACTIVE UNKNOWN

§ Identity

Operator
Country
US
Launch date
2026-04-04
Launch site
AFETR
Launch vehicle
Mass (kg)
RCS (m²)

External: N2YO · Heavens-Above · Gunter

§ Orbital elements

Epoch: 2026-09-20T03:45:46.033920Z

Period
97.30 min
Inclination
51.8984°
Eccentricity
0.0001078
Mean motion
14.79931372 rev/d
Perigee alt
628.8 km
Apogee alt
630.3 km
Semi-major
7,007.7 km
B*
2.7581e-4
RAAN
118.1902°
Arg perigee
106.1449°
Mean anomaly
253.9632°
Rev number
2,542

§ Raw data

KUIPER-002891 68591U 26072U   26263.15678280  .00001882  00000+0  27581-3 0  99962 68591  51.8984 118.1902 0001078 106.1449 253.9632 14.79931372 25428

JSON: /api/v1/satellites/68591 · /tle

For live sub-satellite position, see the globe view (requires WebGL).

§ Visibility from observer

Set your observer location to see the next 7 days of passes ≥ 10°. The values pass through the URL so the page stays shareable.

No JS? Fill the form by hand. The geolocation button needs JavaScript.